User: anonymous   Login
Location: Unspecified
(0.0000°N, 0.0000°E)
Time: 01:51:26
(UTC+00:00)
Language:

STARLINK-35850 - Orbit

View from above orbital plane
View from above orbital plane
View from above satellite
View from above satellite

Ground track
Ground track

The orbit is defined by the following mean orbital elements,

1 66352U          26145.52506373 +.00000000 +00000-0 +22041-3 0 00006
2 66352  53.1582 235.2632 0001159  89.9970 270.1164 15.30198118    07
Epoch (UTC): 25 May 2026 12:36:05
Eccentricity: 0.0001159
inclination: 53.1582°
perigee height: 474 km
apogee height: 476 km
right ascension of ascending node: 235.2632°
argument of perigee: 89.9970°
revolutions per day: 15.30198118
mean anomaly at epoch: 270.1164°

The dashed part of the orbit path shows where the satellite is in the earth's shadow,  

DLR